Tracking 30109 objects as of 12-Dec-2024
HD Live streaming from Space Station
objects crossing your sky now

COSMOS 1771

Track COSMOS 1771 now!
10-day predictions
COSMOS 1771 is classified as:


NORAD ID: 16917
Int'l Code: 1986-062A
Perigee: 934.1 km
Apogee: 989.4 km
Inclination: 65.0 °
Period: 104.2 minutes
Semi major axis: 7332 km
RCS: 2.6102 m2 (large)
Launch date: August 20, 1986
Source: Commonwealth of Independent States (former USSR) (CIS)
Launch site: TYURATAM MISSILE AND SPACE COMPLEX (TTMTR)
Your satellite tracking list
Your tracking list is empty




NASA's NSSDC Master Catalog

Two Line Element Set (TLE):
1 16917U 86062A   24346.39524914 -.00000025  00000-0  58311-4 0  9992
2 16917  64.9841 341.4132 0037700 132.6311 227.7937 13.82607757935347
Source of the keplerian elements: AFSPC